Home   Weather   Ashdod   Past weeks

Flag for Israel Past Weather in Ashdod, Israel — Yesterday and Last 2 Weeks

Now
75 °F

Sunny.


Feels Like: 78 °F
Forecast: 61 / 75 °F
Wind: 10 mph from Northwest

Location: Ben Gurion International Airport

Current Time: Apr 26, 2017 at 5:02:28 pm

Latest Report: Apr 26, 2017 at 4:20 pm


Visibility: 10 mi

Pressure: 29.92 "Hg

Humidity: 57%

Dew Point: 59 °F

Location of AshdodLocation

Past Weather in Ashdod — Graph

°F

Ashdod Temperature Yesterday

Maximum temperature yesterday: 73 °F (at 12:50 pm)
Minimum temperature yesterday: 54 °F (at 6:20 am)
Average temperature yesterday: 65 °F

High & Low Weather Summary for the Past Weeks

 TemperatureHumidityPressure
High102 °F (Apr 22, 12:20 pm)88% (Apr 14, 3:20 am)30.12 "Hg (Apr 14, 3:20 am)
Low54 °F (Apr 17, 4:50 am)8% (Apr 22, 11:20 am)29.65 "Hg (Apr 13, 1:50 pm)
Average69 °F56%29.96 "Hg
* Reported Apr 11 3:50 pm — Apr 26 3:50 pm, Ashdod, Weather by CustomWeather, © 2017

Note: Actual official high and low records may vary slightly from our data, if they occured in-between our weather recording intervals... More about our weather records

Advertising

Ashdod Weather History for the Previous 24 Hours

Scroll right to see more
 ConditionsComfort  
Time TempWeatherWind HumidityBarometerVisibility
3:50 pm
Wed, Apr 26
75 °FSunny.14 mph54%29.92 "Hg10 mi
2:50 pm75 °FPassing clouds.12 mph54%29.92 "HgN/A
2:20 pm77 °FSunny.10 mph51%29.92 "Hg10 mi
1:50 pm77 °FPassing clouds.9 mph47%29.95 "HgN/A
1:20 pm77 °FSunny.12 mph47%29.95 "Hg10 mi
12:50 pm79 °FSunny.10 mph45%29.95 "Hg10 mi
12:20 pm79 °FSunny.6 mph37%29.95 "Hg10 mi
11:50 am77 °FSunny.5 mph42%29.95 "Hg10 mi
11:20 am77 °FSunny.3 mph36%29.95 "Hg10 mi
10:50 am73 °FSunny.3 mph41%29.98 "Hg10 mi
10:20 am72 °FSunny.3 mph47%29.98 "Hg10 mi
9:50 am70 °FSunny.2 mph53%29.98 "Hg10 mi
9:20 am68 °FSunny.2 mph60%29.98 "Hg10 mi
8:50 am64 °FSunny.1 mph68%29.98 "Hg10 mi
8:20 am63 °FSunny.1 mph68%29.98 "Hg10 mi
7:50 am61 °FClear.2 mph72%29.98 "Hg6 mi
7:20 am59 °FClear.5 mph77%29.98 "Hg6 mi
6:50 am59 °FClear.5 mph72%30.01 "Hg6 mi
6:20 am57 °FClear.3 mph77%29.98 "Hg5 mi
5:50 am57 °FClear.1 mph77%29.98 "Hg4 mi
5:20 am57 °FClear.3 mph77%29.98 "Hg5 mi
4:50 am57 °FClear.3 mph82%29.98 "Hg6 mi
4:20 am57 °FClear.5 mph82%29.98 "Hg6 mi
3:50 am57 °FClear.5 mph77%29.98 "Hg6 mi
3:20 am59 °FClear.3 mph82%29.98 "Hg10 mi
2:50 am59 °FClear.6 mph77%29.98 "Hg10 mi
2:20 am59 °FClear.5 mph77%30.01 "Hg10 mi
1:50 am59 °FClear.3 mph82%30.01 "Hg10 mi
1:20 am59 °FClear.1 mph82%30.01 "Hg10 mi
12:50 am61 °FClear.1 mph77%30.01 "Hg10 mi
12:20 am61 °FClear.2 mph77%30.01 "Hg10 mi
11:50 pm
Tue, Apr 25
63 °FClear.2 mph77%30.01 "Hg10 mi
11:20 pm63 °FClear.6 mph77%30.01 "Hg10 mi
10:50 pm63 °FClear.7 mph77%30.01 "Hg10 mi
10:20 pm63 °FClear.5 mph73%30.01 "Hg10 mi
9:50 pm64 °FClear.6 mph73%30.01 "Hg10 mi
9:20 pm64 °FClear.7 mph73%30.01 "Hg10 mi
8:50 pm64 °FClear.7 mph68%30.01 "Hg10 mi
8:20 pm66 °FClear.8 mph64%30.01 "Hg10 mi
7:50 pm66 °FClear.9 mph64%30.01 "Hg10 mi
7:20 pm66 °FClear.9 mph60%30.01 "Hg10 mi
6:50 pm68 °FSunny.9 mph56%30.01 "Hg10 mi
6:20 pm70 °FSunny.12 mph57%30.01 "Hg10 mi
5:50 pm70 °FSunny.16 mph53%30.01 "Hg10 mi
5:20 pm72 °FSunny.17 mph47%30.01 "Hg10 mi
Weather by CustomWeather, © 2017

See weather overviewHow to use our weather pages